FW7076 Weather Reports


time (UTC)temp
C
wind
direction
speed
KPH
gust
KPH
rain 1hr
cm
rain 24hr
cm
rain mn
cm
humidity
%
barometer
mb
20260906214906 28 224 3.2 8.0 0.00 0.00 0.00 37 1304.8
20260906214405 28 236 1.6 4.8 0.00 0.00 0.00 37 1305.0
20260906213904 28 285 1.6 4.8 0.00 0.00 0.00 37 1305.0
20260906213359 28 228 3.2 8.0 0.00 0.00 0.00 36 1305.2
20260906212856 28 252 3.2 4.8 0.00 0.00 0.00 38 1305.2
20260906212352 28 251 4.8 9.7 0.00 0.00 0.00 37 1305.3
20260906211851 28 243 11.3 12.9 0.00 0.00 0.00 37 1305.1
20260906211347 28 256 1.6 8.0 0.00 0.00 0.00 38 1305.3
20260906210842 28 249 9.7 12.9 0.00 0.00 0.00 38 1305.3
20260906210337 28 319 3.2 4.8 0.00 0.00 0.00 37 1305.4
20260906205832 28 250 4.8 4.8 0.00 0.00 0.00 38 1305.6
20260906205328 28 227 9.7 11.3 0.00 0.00 0.00 39 1305.7
20260906204824 28 156 3.2 3.2 0.00 0.00 0.00 40 1305.7
20260906204323 29 322 1.6 3.2 0.00 0.00 0.00 39 1305.7
20260906203822 28 290 0.0 1.6 0.00 0.00 0.00 40 1306.1
20260906203318 28 232 3.2 4.8 0.00 0.00 0.00 40 1305.7
20260906202815 28 258 6.4 9.7 0.00 0.00 0.00 37 1305.9
20260906202314 28 286 4.8 9.7 0.00 0.00 0.00 39 1305.9
20260906201809 28 221 1.6 3.2 0.00 0.00 0.00 39 1305.7
20260906201308 28 254 8.0 11.3 0.00 0.00 0.00 38 1305.9
20260906200804 29 250 0.0 1.6 0.00 0.00 0.00 39 1305.8
20260906200259 28 265 4.8 4.8 0.00 0.00 0.00 39 1305.9
20260906195754 29 230 8.0 14.5 0.00 0.00 0.00 37 1306.1
20260906195251 30 275 1.6 3.2 0.00 0.00 0.00 36 1306.1
20260906194747 30 203 0.0 1.6 0.00 0.00 0.00 37 1306.1
20260906194242 30 269 1.6 3.2 0.00 0.00 0.00 36 1306.3
20260906193731 28 277 0.0 0.0 0.00 0.00 0.00 38 1306.2
20260906193226 28 283 0.0 0.0 0.00 0.00 0.00 38 1306.4
20260906192721 29 195 3.2 4.8 0.00 0.00 0.00 35 1306.3
20260906192216 29 256 0.0 0.0 0.00 0.00 0.00 36 1306.2
20260906191716 28 329 1.6 8.0 0.00 0.00 0.00 37 1306.7
20260906191215 28 272 1.6 3.2 0.00 0.00 0.00 37 1306.5
20260906190710 28 281 4.8 8.0 0.00 0.00 0.00 36 1306.5
20260906190205 28 198 4.8 9.7 0.00 0.00 0.00 36 1306.5
20260906185703 29 292 1.6 3.2 0.00 0.00 0.00 35 1306.8
20260906185202 29 256 1.6 3.2 0.00 0.00 0.00 35 1306.9
20260906184657 28 315 0.0 1.6 0.00 0.00 0.00 38 1307.0
20260906184153 28 283 0.0 0.0 0.00 0.00 0.00 38 1306.9
20260906183649 28 240 0.0 1.6 0.00 0.00 0.00 35 1307.0
20260906183144 28 255 1.6 3.2 0.00 0.00 0.00 36 1307.1
20260906182644 28 275 0.0 0.0 0.00 0.00 0.00 37 1307.4
20260906182140 28 271 1.6 3.2 0.00 0.00 0.00 36 1307.3
20260906181635 28 263 0.0 0.0 0.00 0.00 0.00 37 1307.4
20260906181131 28 274 0.0 0.0 0.00 0.00 0.00 38 1307.6
20260906180626 28 102 1.6 4.8 0.00 0.00 0.00 36 1307.8
20260906180121 28 258 0.0 0.0 0.00 0.00 0.00 36 1307.6
20260906175619 27 274 0.0 1.6 0.00 0.00 0.00 38 1307.9
20260906175114 28 236 3.2 9.7 0.00 0.00 0.00 37 1307.9
20260906174612 28 261 0.0 0.0 0.00 0.00 0.00 39 1307.8
20260906174101 28 256 0.0 0.0 0.00 0.00 0.00 37 1308.0
20260906173556 27 267 0.0 0.0 0.00 0.00 0.00 39 1307.8
20260906173053 27 261 0.0 1.6 0.00 0.00 0.00 37 1308.4
20260906172552 27 257 0.0 3.2 0.00 0.00 0.00 38 1308.1
20260906172048 27 260 0.0 0.0 0.00 0.00 0.00 38 1308.1
20260906171547 27 252 1.6 4.8 0.00 0.00 0.00 39 1308.4
20260906171043 27 212 4.8 4.8 0.00 0.00 0.00 36 1308.2
20260906170539 27 259 0.0 1.6 0.00 0.00 0.00 37 1308.2
20260906170037 27 256 0.0 0.0 0.00 0.00 0.00 37 1308.2
20260906165534 27 262 1.6 4.8 0.00 0.00 0.00 37 1308.5
20260906165029 27 32 0.0 0.0 0.00 0.00 0.00 36 1308.2
20260906164529 27 274 0.0 0.0 0.00 0.00 0.00 39 1308.6
20260906164025 27 238 0.0 0.0 0.00 0.00 0.00 37 1308.4
20260906163520 27 281 0.0 0.0 0.00 0.00 0.00 38 1308.5
20260906163016 26 260 0.0 0.0 0.00 0.00 0.00 36 1308.6
20260906162512 26 247 0.0 0.0 0.00 0.00 0.00 40 1308.1
20260906162007 26 273 0.0 0.0 0.00 0.00 0.00 40 1308.4
20260906161502 26 258 3.2 4.8 0.00 0.00 0.00 41 1308.4
20260906161001 26 263 0.0 0.0 0.00 0.00 0.00 39 1308.5
20260906160454 26 255 0.0 0.0 0.00 0.00 0.00 41 1308.1
20260906155952 25 275 0.0 0.0 0.00 0.00 0.00 40 1308.4
20260906155451 26 261 0.0 0.0 0.00 0.00 0.00 38 1308.2
20260906154948 27 274 0.0 0.0 0.00 0.00 0.00 39 1308.4
20260906154443 26 275 0.0 0.0 0.00 0.00 0.00 37 1308.1
20260906153941 26 262 0.0 0.0 0.00 0.00 0.00 38 1308.2
20260906153440 27 257 0.0 0.0 0.00 0.00 0.00 37 1308.0
20260906152936 27 342 0.0 0.0 0.00 0.00 0.00 37 1308.1
20260906152435 26 253 0.0 0.0 0.00 0.00 0.00 39 1308.0
20260906151934 26 267 0.0 0.0 0.00 0.00 0.00 39 1308.1
20260906151430 26 274 0.0 0.0 0.00 0.00 0.00 39 1308.0
20260906150926 25 277 0.0 0.0 0.00 0.00 0.00 40 1308.0
20260906150420 25 275 0.0 0.0 0.00 0.00 0.00 40 1308.1
20260906145915 25 278 0.0 0.0 0.00 0.00 0.00 41 1308.0
20260906145414 25 279 0.0 0.0 0.00 0.00 0.00 41 1308.2
20260906144908 24 271 0.0 0.0 0.00 0.00 0.00 41 1308.2
20260906144403 24 279 0.0 0.0 0.00 0.00 0.00 43 1308.1
20260906143858 23 274 0.0 0.0 0.00 0.00 0.00 45 1307.9
20260906143354 22 29 0.0 0.0 0.00 0.00 0.00 47 1307.9
20260906142850 22 304 0.0 0.0 0.00 0.00 0.00 47 1307.9
20260906142345 21 279 0.0 0.0 0.00 0.00 0.00 50 1307.9
20260906141844 20 316 0.0 0.0 0.00 0.00 0.00 52 1307.8
20260906141339 18 277 0.0 0.0 0.00 0.00 0.00 54 1307.9
20260906140839 18 321 0.0 0.0 0.00 0.00 0.00 57 1307.9
20260906140333 18 291 0.0 0.0 0.00 0.00 0.00 58 1308.0
20260906135830 18 279 0.0 0.0 0.00 0.00 0.00 58 1307.9
20260906135326 17 291 0.0 0.0 0.00 0.00 0.00 56 1308.1
20260906134821 17 283 0.0 0.0 0.00 0.00 0.00 58 1307.9
20260906134316 17 283 0.0 0.0 0.00 0.00 0.00 59 1307.6
20260906133812 17 282 0.0 0.0 0.00 0.00 0.00 59 1307.6
20260906133308 17 308 0.0 0.0 0.00 0.00 0.00 59 1307.6
20260906132802 17 295 0.0 0.0 0.00 0.00 0.00 59 1307.6
20260906132257 17 345 1.6 3.2 0.00 0.00 0.00 59 1307.8
20260906131748 17 271 0.0 0.0 0.00 0.00 0.00 58 1307.3
20260906131248 17 269 0.0 0.0 0.00 0.00 0.00 58 1307.5
20260906130743 17 308 0.0 0.0 0.00 0.00 0.00 57 1307.4
20260906130238 17 290 0.0 0.0 0.00 0.00 0.00 58 1307.4
20260906125736 17 311 0.0 0.0 0.00 0.00 0.00 58 1307.4
20260906125235 17 281 0.0 0.0 0.00 0.00 0.00 58 1307.3
20260906124729 17 265 0.0 0.0 0.00 0.00 0.00 56 1307.5
20260906124226 17 285 0.0 0.0 0.00 0.00 0.00 57 1307.6
20260906123724 17 287 1.6 3.2 0.00 0.00 0.00 57 1307.5
20260906123220 17 301 0.0 0.0 0.00 0.00 0.00 57 1307.0
20260906122719 17 291 0.0 0.0 0.00 0.00 0.00 56 1307.3
20260906122214 17 124 0.0 0.0 0.00 0.00 0.00 56 1307.3
20260906121711 17 276 0.0 0.0 0.00 0.00 0.00 56 1307.3
20260906121207 17 283 0.0 0.0 0.00 0.00 0.00 56 1307.4
20260906120702 17 275 0.0 0.0 0.00 0.00 0.00 56 1307.1
20260906120159 17 291 0.0 0.0 0.00 0.00 0.00 56 1307.3
20260906115654 17 299 0.0 0.0 0.00 0.00 0.00 56 1307.1
20260906115149 16 280 0.0 0.0 0.00 0.00 0.00 57 1307.4
20260906114648 16 282 0.0 0.0 0.00 0.00 0.00 58 1307.1
20260906114144 16 286 0.0 0.0 0.00 0.00 0.00 58 1307.1
20260906113643 17 280 0.0 0.0 0.00 0.00 0.00 57 1307.0
20260906113144 17 285 0.0 0.0 0.00 0.00 0.00 55 1307.3
20260906112643 17 284 0.0 0.0 0.00 0.00 0.00 55 1307.1
20260906112140 17 285 0.0 0.0 0.00 0.00 0.00 56 1306.9
20260906111639 17 292 0.0 0.0 0.00 0.00 0.00 57 1307.0
20260906111134 17 277 0.0 0.0 0.00 0.00 0.00 56 1306.9
20260906110629 17 338 0.0 0.0 0.00 0.00 0.00 56 1306.7
20260906110124 17 296 0.0 0.0 0.00 0.00 0.00 56 1307.1
20260906105618 17 283 0.0 0.0 0.00 0.00 0.00 58 1307.0
20260906105115 17 306 0.0 0.0 0.00 0.00 0.00 58 1306.8
20260906104614 17 312 0.0 0.0 0.00 0.00 0.00 59 1306.5
20260906104108 16 306 0.0 0.0 0.00 0.00 0.00 59 1306.9
20260906103606 16 288 0.0 0.0 0.00 0.00 0.00 61 1306.8
20260906103101 17 279 0.0 0.0 0.00 0.00 0.00 61 1306.9
20260906102601 16 316 0.0 0.0 0.00 0.00 0.00 61 1306.7
20260906102056 16 280 0.0 0.0 0.00 0.00 0.00 63 1307.0
20260906101551 17 286 0.0 0.0 0.00 0.00 0.00 62 1307.0
20260906101045 17 281 0.0 0.0 0.00 0.00 0.00 60 1307.1
20260906100541 18 275 0.0 0.0 0.00 0.00 0.00 59 1307.1
20260906100042 18 277 0.0 0.0 0.00 0.00 0.00 58 1307.1
20260906095536 18 296 0.0 0.0 0.00 0.00 0.00 59 1307.4
20260906095031 17 273 0.0 0.0 0.00 0.00 0.00 59 1307.5
20260906094525 17 283 0.0 0.0 0.00 0.00 0.00 60 1307.3
20260906094021 17 280 0.0 0.0 0.00 0.00 0.00 62 1306.9
20260906093517 17 287 0.0 0.0 0.00 0.00 0.00 61 1307.0
20260906093016 17 286 0.0 0.0 0.00 0.00 0.00 60 1307.4
20260906092511 17 285 0.0 0.0 0.00 0.00 0.00 60 1307.0
20260906092006 18 266 0.0 0.0 0.00 0.00 0.00 61 1307.3
20260906091502 17 283 0.0 0.0 0.00 0.00 0.00 62 1307.1
20260906090958 17 322 0.0 0.0 0.00 0.00 0.00 62 1307.0
20260906090453 17 276 0.0 0.0 0.00 0.00 0.00 64 1306.9
20260906085953 18 288 0.0 0.0 0.00 0.00 0.00 67 1307.3
20260906085452 18 291 0.0 0.0 0.00 0.00 0.00 66 1306.9
20260906084951 18 304 0.0 0.0 0.00 0.00 0.00 66 1307.1
20260906084447 18 288 0.0 0.0 0.00 0.00 0.00 65 1307.1
20260906083945 18 290 0.0 0.0 0.00 0.00 0.00 64 1306.9
20260906083441 18 298 1.6 3.2 0.00 0.00 0.00 64 1307.0
20260906082940 17 275 0.0 3.2 0.00 0.00 0.00 65 1307.0
20260906082436 17 11 0.0 0.0 0.00 0.00 0.00 66 1307.1
20260906081931 17 277 0.0 0.0 0.00 0.00 0.00 67 1306.8
20260906081427 17 296 0.0 0.0 0.00 0.00 0.00 69 1307.3
20260906080923 17 276 0.0 0.0 0.00 0.00 0.00 71 1307.1
20260906080419 17 287 0.0 0.0 0.00 0.00 0.00 73 1307.3
20260906075918 17 281 0.0 0.0 0.00 0.00 0.00 75 1307.3
20260906075413 17 314 0.0 0.0 0.00 0.00 0.00 77 1307.1
20260906074908 17 280 0.0 0.0 0.00 0.00 0.00 76 1307.3
20260906074403 16 282 0.0 0.0 0.00 0.00 0.00 76 1307.1
20260906073902 16 283 0.0 0.0 0.00 0.00 0.00 75 1307.1
20260906073357 16 281 0.0 0.0 0.00 0.00 0.00 76 1307.5
20260906072853 16 289 0.0 0.0 0.00 0.00 0.00 77 1307.1
20260906072348 16 280 0.0 0.0 0.00 0.00 0.00 78 1307.5
20260906071844 17 290 0.0 0.0 0.00 0.00 0.00 77 1307.4
20260906071339 17 282 0.0 0.0 0.00 0.00 0.00 75 1307.4
20260906070835 17 276 0.0 0.0 0.00 0.00 0.00 76 1307.5
20260906070331 17 278 0.0 0.0 0.00 0.00 0.00 76 1307.5
20260906065826 17 341 0.0 0.0 0.00 0.00 0.00 77 1307.6
20260906065321 17 285 0.0 0.0 0.00 0.00 0.00 77 1307.6
20260906064817 17 292 0.0 0.0 0.00 0.00 0.00 76 1307.9
20260906064313 17 284 0.0 0.0 0.00 0.00 0.00 74 1308.0
20260906063812 17 282 0.0 0.0 0.00 0.00 0.00 72 1307.8
20260906063308 17 290 0.0 0.0 0.00 0.00 0.00 72 1307.8
20260906062803 18 285 0.0 0.0 0.00 0.00 0.00 72 1307.5
20260906062305 18 282 0.0 0.0 0.00 0.00 0.00 69 1307.5
20260906061758 18 324 0.0 0.0 0.00 0.00 0.00 68 1307.5
20260906061255 18 88 0.0 0.0 0.00 0.00 0.00 68 1307.4
20260906060749 18 247 0.0 0.0 0.00 0.00 0.00 68 1307.5
20260906060247 18 282 0.0 0.0 0.00 0.00 0.00 68 1307.3
20260906055743 19 292 0.0 0.0 0.00 0.00 0.00 67 1307.6
20260906055237 19 280 0.0 0.0 0.00 0.00 0.00 67 1307.3
20260906054733 19 320 0.0 0.0 0.00 0.00 0.00 67 1307.3
20260906054228 19 33 0.0 0.0 0.00 0.00 0.00 67 1307.1
20260906053725 19 13 0.0 0.0 0.00 0.00 0.00 68 1307.3
20260906053220 18 103 0.0 0.0 0.00 0.00 0.00 69 1307.4
20260906052715 19 291 0.0 0.0 0.00 0.00 0.00 69 1307.0
20260906052211 19 102 0.0 0.0 0.00 0.00 0.00 68 1307.1
20260906051708 20 287 0.0 0.0 0.00 0.00 0.00 67 1307.0
20260906051207 19 338 0.0 0.0 0.00 0.00 0.00 67 1307.4
20260906050703 18 295 0.0 0.0 0.00 0.00 0.00 69 1307.3
20260906050158 18 283 0.0 0.0 0.00 0.00 0.00 71 1307.1
20260906045656 18 284 0.0 0.0 0.00 0.00 0.00 70 1307.4
20260906045151 19 284 0.0 0.0 0.00 0.00 0.00 68 1307.4
20260906044648 20 283 0.0 0.0 0.00 0.00 0.00 66 1307.6
20260906044142 18 176 0.0 0.0 0.00 0.00 0.00 68 1307.9
20260906043639 18 286 0.0 0.0 0.00 0.00 0.00 69 1307.6
20260906043134 20 280 0.0 0.0 0.00 0.00 0.00 68 1307.5
20260906042633 20 277 0.0 0.0 0.00 0.00 0.00 67 1307.8
20260906042127 20 282 0.0 0.0 0.00 0.00 0.00 67 1307.6
20260906041624 20 279 0.0 0.0 0.00 0.00 0.00 67 1307.6
20260906041123 19 282 0.0 0.0 0.00 0.00 0.00 68 1307.6
20260906040620 20 284 0.0 0.0 0.00 0.00 0.00 68 1307.6
20260906040115 19 295 0.0 0.0 0.00 0.00 0.00 69 1307.9
20260906035610 19 272 0.0 0.0 0.00 0.00 0.00 70 1307.8
20260906035105 20 280 0.0 0.0 0.00 0.00 0.00 68 1308.0
20260906034600 20 279 0.0 0.0 0.00 0.00 0.00 68 1307.9
20260906034054 20 279 0.0 0.0 0.00 0.00 0.00 67 1308.0
20260906033550 20 281 0.0 0.0 0.00 0.00 0.00 66 1307.6
20260906033045 20 281 0.0 0.0 0.00 0.00 0.00 66 1307.8
20260906032542 20 279 0.0 0.0 0.00 0.00 0.00 65 1307.6
20260906032036 21 281 0.0 0.0 0.00 0.00 0.00 65 1307.5
20260906031532 21 285 0.0 0.0 0.00 0.00 0.00 64 1307.5
20260906031028 21 300 0.0 0.0 0.00 0.00 0.00 63 1307.6
20260906030527 21 313 0.0 0.0 0.00 0.00 0.00 62 1307.5
20260906030026 21 288 0.0 0.0 0.00 0.00 0.00 62 1307.3
20260906025526 21 38 0.0 0.0 0.00 0.00 0.00 62 1307.1
20260906025023 22 290 0.0 0.0 0.00 0.00 0.00 62 1307.0
20260906024520 22 348 0.0 0.0 0.00 0.00 0.00 62 1306.9
20260906024020 22 12 0.0 1.6 0.00 0.00 0.00 62 1307.0
20260906023516 22 298 0.0 0.0 0.00 0.00 0.00 61 1306.9
20260906023011 22 91 0.0 0.0 0.00 0.00 0.00 60 1306.8
20260906022506 22 277 0.0 0.0 0.00 0.00 0.00 59 1306.9
20260906022001 22 274 1.6 3.2 0.00 0.00 0.00 57 1306.8
20260906021455 23 265 0.0 1.6 0.00 0.00 0.00 52 1306.7
20260906020951 23 346 0.0 1.6 0.00 0.00 0.00 43 1306.4
20260906020444 22 262 0.0 0.0 0.00 0.00 0.00 37 1306.4
20260906015944 22 282 0.0 0.0 0.00 0.00 0.00 39 1306.4
20260906015444 22 280 0.0 0.0 0.00 0.00 0.00 38 1305.9
20260906014944 22 284 0.0 0.0 0.00 0.00 0.00 38 1306.1
20260906014438 23 271 0.0 0.0 0.00 0.00 0.00 37 1306.1
20260906013934 23 280 0.0 0.0 0.00 0.00 0.00 36 1305.8
20260906013429 23 276 0.0 0.0 0.00 0.00 0.00 36 1305.8
20260906012925 23 278 0.0 0.0 0.00 0.00 0.00 37 1305.7
20260906012425 23 292 0.0 0.0 0.00 0.00 0.00 36 1305.9
20260906011924 24 282 0.0 0.0 0.00 0.00 0.00 36 1306.1
20260906011420 24 280 0.0 0.0 0.00 0.00 0.00 36 1306.2
20260906010915 25 277 0.0 0.0 0.00 0.00 0.00 35 1306.1
20260906010411 25 300 0.0 0.0 0.00 0.00 0.00 35 1306.3
20260906005907 25 263 0.0 0.0 0.00 0.00 0.00 34 1306.2
20260906005406 26 342 0.0 0.0 0.00 0.00 0.00 34 1306.4
20260906004904 26 305 0.0 0.0 0.00 0.00 0.00 34 1306.3
20260906004359 26 277 0.0 0.0 0.00 0.00 0.00 34 1306.3
20260906003854 25 298 0.0 0.0 0.00 0.00 0.00 34 1306.2
20260906003349 26 278 0.0 0.0 0.00 0.00 0.00 35 1306.5
20260906002845 26 296 0.0 0.0 0.00 0.00 0.00 34 1306.5
20260906002344 27 355 0.0 1.6 0.00 0.00 0.00 33 1306.5
20260906001840 27 32 1.6 1.6 0.00 0.00 0.00 33 1306.1
20260906001336 26 309 0.0 0.0 0.00 0.00 0.00 34 1306.3
20260906000830 26 281 0.0 0.0 0.00 0.00 0.00 34 1306.2
20260906000326 26 241 0.0 0.0 0.00 0.00 0.00 33 1306.3
20260905235825 26 267 0.0 0.0 0.00 0.00 0.00 34 1306.3
20260905235320 26 283 0.0 0.0 0.00 0.00 0.00 35 1306.2
20260905234815 26 279 0.0 0.0 0.00 0.00 0.00 32 1306.2
20260905234310 26 296 0.0 0.0 0.00 0.00 0.00 36 1305.9
20260905233805 26 281 0.0 0.0 0.00 0.00 0.00 36 1305.9
20260905233300 26 286 0.0 0.0 0.00 0.00 0.00 34 1306.1
20260905232759 26 114 0.0 0.0 0.00 0.00 0.00 33 1306.2
20260905232255 26 283 0.0 0.0 0.00 0.00 0.00 34 1305.9
20260905231751 26 284 0.0 0.0 0.00 0.00 0.00 33 1305.8
20260905231245 27 280 0.0 0.0 0.00 0.00 0.00 34 1305.9
20260905230742 27 82 0.0 0.0 0.00 0.00 0.00 29 1305.7
20260905230234 26 304 0.0 0.0 0.00 0.00 0.00 30 1306.2
20260905225734 27 267 0.0 0.0 0.00 0.00 0.00 30 1305.8
20260905225229 27 277 0.0 0.0 0.00 0.00 0.00 32 1306.1
20260905224728 27 286 0.0 0.0 0.00 0.00 0.00 33 1306.1
20260905224224 28 274 0.0 0.0 0.00 0.00 0.00 32 1306.4
20260905223719 28 304 0.0 0.0 0.00 0.00 0.00 32 1306.1
20260905223216 27 326 0.0 0.0 0.00 0.00 0.00 34 1306.3
20260905222712 27 288 0.0 0.0 0.00 0.00 0.00 36 1306.4
20260905222211 27 281 0.0 0.0 0.00 0.00 0.00 35 1306.7
20260905221707 27 265 0.0 0.0 0.00 0.00 0.00 33 1306.7
20260905221203 27 275 0.0 0.0 0.00 0.00 0.00 32 1306.4
20260905220658 26 274 0.0 0.0 0.00 0.00 0.00 35 1306.3
20260905220155 26 281 0.0 0.0 0.00 0.00 0.00 34 1306.5
20260905215649 26 279 0.0 0.0 0.00 0.00 0.00 37 1306.3